Location: Dana
(41.8364°N, 106.7042°W)
Time: 13:43:19
(UTC+00:00)

Injun/Solrad 3 - Pass Details

Date: 19 May 2026
Orbit: 867 x 989 km, 66.8° (Epoch: 7 June)

Event Time Altitude Azimuth Distance (km) Brightness Sun altitude
Rises 06:13:28 0° 332° (NNW) 3,685 12.2 -27.3°
Reaches altitude 10° 06:16:05 10° 336° (NNW) 2,743 11.3 -27.4°
Maximum altitude 06:22:27 59° 56° (NE) 1,133 8.3 -27.7°
Enters shadow 06:23:48 49° 100° (E) 1,251 8.3 -27.7°
Drops below altitude 10° 06:28:48 10° 135° (SE) 2,736 - -27.9°
Sets 06:31:24 0° 139° (SE) 3,674 - -27.9°
